Terminal Aerodrome Forecast
Issued by NWS

Home | Current Version | Previous Version | Graphics & Text | Print | Product List | Glossary On
Versions: 1 2 3 4 5 6 7 8 9 10 11 12 13 14 15 16 17 18 19 20 21 22 23 24 25 26 27 28 29 30 31 32 33 34 35 36 37 38 39 40 41 42 43 44 45 46 47 48 49 50
000
FTUS43 KLOT 151400 AAA
TAFGYY
TAF AMD
KGYY 151407Z 1514/1612 20005KT P6SM SCT050 BKN060
     FM151800 22008KT P6SM -SHRA BKN040 BKN080 BKN120
     FM152000 36007KT 6SM -RA SCT010 BKN015 OVC035
     FM152300 32010KT P6SM SCT012 BKN020 BKN040
     FM160300 33007KT P6SM SCT015=

USA.gov is the U.S. government's official web portal to all federal, state and local government web resources and services.